• In Hungary
  • List of Countries
  • For 7 days
  • Water Temperature
  • Satellite Maps
  • Weather Map
  • News
  • Weather Widgets
  • user-avatar
    Login

    Hourly Weather Malanville

    Today, 19 February, Monday

    Time Temperature Precipitation Wind Pressure Humidity
    00:00 +30°C° 0 mm 2 mps 741 mmHg 13%
    01:00 +29°C° 0 mm 2 mps 741 mmHg 14%
    02:00 +28°C° 0 mm 3 mps 741 mmHg 14%
    03:00 +28°C° 0 mm 3 mps 741 mmHg 15%
    04:00 +27°C° 0 mm 3 mps 741 mmHg 15%
    05:00 +27°C° 0 mm 2 mps 741 mmHg 16%
    06:00 +26°C° 0 mm 2 mps 742 mmHg 17%
    07:00 +29°C° 0 mm 2 mps 742 mmHg 15%
    08:00 +31°C° 0 mm 3 mps 743 mmHg 13%
    09:00 +35°C° 0 mm 3 mps 743 mmHg 11%
    10:00 +37°C° 0 mm 3 mps 743 mmHg 11%
    11:00 +39°C° 0 mm 2 mps 742 mmHg 10%
    12:00 +42°C° 0 mm 2 mps 742 mmHg 10%
    13:00 +42°C° 0 mm 2 mps 741 mmHg 9%
    14:00 +42°C° 0 mm 1 mps 740 mmHg 9%
    15:00 +43°C° 0 mm 1 mps 739 mmHg 8%
    16:00 +41°C° 0 mm 1 mps 739 mmHg 9%
    17:00 +39°C° 0 mm 1 mps 739 mmHg 10%
    18:00 +36°C° 0 mm 1 mps 739 mmHg 11%
    19:00 +36°C° 0 mm 2 mps 740 mmHg 11%
    20:00 +36°C° 0 mm 2 mps 740 mmHg 11%
    21:00 +35°C° 0 mm 2 mps 740 mmHg 11%
    22:00 +34°C° 0 mm 2 mps 740 mmHg 12%
    23:00 +34°C° 0 mm 2 mps 740 mmHg 12%

    Tomorrow, 20 February, Tuesday

    Time Temperature Precipitation Wind Pressure Humidity
    00:00 +32°C° 0 mm 2 mps 740 mmHg 13%
    01:00 +31°C° 0 mm 2 mps 740 mmHg 13%
    02:00 +31°C° 0 mm 2 mps 740 mmHg 14%
    03:00 +30°C° 0 mm 2 mps 740 mmHg 14%
    04:00 +29°C° 0 mm 2 mps 740 mmHg 15%
    05:00 +29°C° 0 mm 1 mps 740 mmHg 16%
    06:00 +28°C° 0 mm 1 mps 740 mmHg 16%
    07:00 +31°C° 0 mm 2 mps 741 mmHg 16%
    08:00 +35°C° 0 mm 2 mps 741 mmHg 16%
    09:00 +37°C° 0 mm 3 mps 742 mmHg 16%
    10:00 +39°C° 0 mm 3 mps 741 mmHg 15%
    11:00 +41°C° 0 mm 2 mps 741 mmHg 15%
    12:00 +43°C° 0 mm 2 mps 740 mmHg 14%
    13:00 +43°C° 0 mm 2 mps 740 mmHg 13%
    14:00 +44°C° 0 mm 1 mps 739 mmHg 12%
    15:00 +44°C° 0 mm 1 mps 738 mmHg 11%
    16:00 +42°C° 0 mm 1 mps 738 mmHg 12%
    17:00 +40°C° 0 mm 1 mps 738 mmHg 13%
    18:00 +39°C° 0 mm 1 mps 738 mmHg 14%
    19:00 +37°C° 0 mm 1 mps 738 mmHg 14%
    20:00 +36°C° 0 mm 1 mps 739 mmHg 14%
    21:00 +37°C° 0 mm 2 mps 739 mmHg 14%
    22:00 +35°C° 0 mm 1 mps 739 mmHg 15%
    23:00 +34°C° 0 mm 1 mps 739 mmHg 15%

    Day after tomorrow, 21 February, Wednesday

    Time Temperature Precipitation Wind Pressure Humidity
    00:00 +34°C° 0 mm 1 mps 739 mmHg 16%
    01:00 +34°C° 0 mm 1 mps 739 mmHg 16%
    02:00 +34°C° 0 mm 1 mps 738 mmHg 16%
    03:00 +34°C° 0 mm 1 mps 738 mmHg 17%
    04:00 +34°C° 0 mm 2 mps 738 mmHg 20%
    05:00 +34°C° 0 mm 2 mps 739 mmHg 23%
    06:00 +32°C° 0 mm 2 mps 739 mmHg 27%
    07:00 +35°C° 0 mm 3 mps 740 mmHg 29%
    08:00 +36°C° 0 mm 4 mps 740 mmHg 31%
    09:00 +39°C° 0 mm 5 mps 741 mmHg 34%
    10:00 +40°C° 0 mm 5 mps 740 mmHg 31%
    11:00 +41°C° 0 mm 5 mps 740 mmHg 29%
    12:00 +42°C° 0 mm 5 mps 739 mmHg 26%
    13:00 +42°C° 0 mm 4 mps 738 mmHg 25%
    14:00 +43°C° 0 mm 4 mps 737 mmHg 23%
    15:00 +43°C° 0 mm 3 mps 737 mmHg 22%
    16:00 +42°C° 0 mm 3 mps 737 mmHg 24%
    17:00 +40°C° 0 mm 3 mps 737 mmHg 26%
    18:00 +39°C° 0 mm 3 mps 737 mmHg 29%
    19:00 +38°C° 0.1 mm 3 mps 738 mmHg 31%
    20:00 +37°C° 0.1 mm 3 mps 738 mmHg 34%
    21:00 +36°C° 0.1 mm 2 mps 739 mmHg 36%
    22:00 +35°C° 0.4 mm 2 mps 739 mmHg 39%
    23:00 +35°C° 0.4 mm 2 mps 739 mmHg 41%

    22 February, Thursday

    Time Temperature Precipitation Wind Pressure Humidity
    00:00 +34°C° 0.4 mm 2 mps 739 mmHg 44%
    01:00 +32°C° 1.6 mm 2 mps 739 mmHg 48%
    02:00 +31°C° 1.6 mm 3 mps 738 mmHg 52%
    03:00 +32°C° 1.6 mm 4 mps 738 mmHg 56%
    04:00 +32°C° 0.3 mm 4 mps 738 mmHg 56%
    05:00 +32°C° 0.3 mm 4 mps 739 mmHg 57%
    06:00 +32°C° 0.3 mm 4 mps 739 mmHg 57%
    07:00 +33°C° 0 mm 4 mps 739 mmHg 54%
    08:00 +34°C° 0 mm 5 mps 740 mmHg 51%
    09:00 +35°C° 0 mm 5 mps 740 mmHg 49%
    10:00 +36°C° 0 mm 5 mps 740 mmHg 44%
    11:00 +39°C° 0 mm 5 mps 739 mmHg 39%
    12:00 +41°C° 0 mm 5 mps 739 mmHg 34%
    13:00 +41°C° 0 mm 5 mps 738 mmHg 33%
    14:00 +41°C° 0 mm 4 mps 737 mmHg 31%
    15:00 +41°C° 0 mm 4 mps 736 mmHg 30%
    16:00 +40°C° 0 mm 3 mps 737 mmHg 31%
    17:00 +39°C° 0 mm 3 mps 737 mmHg 31%
    18:00 +38°C° 0 mm 2 mps 737 mmHg 32%
    19:00 +38°C° 0.2 mm 2 mps 738 mmHg 34%
    20:00 +36°C° 0.2 mm 1 mps 738 mmHg 36%
    21:00 +35°C° 0.2 mm 1 mps 739 mmHg 38%
    22:00 +34°C° 0.6 mm 1 mps 739 mmHg 40%
    23:00 +35°C° 0.6 mm 2 mps 739 mmHg 41%

    23 February, Friday

    Time Temperature Precipitation Wind Pressure Humidity
    00:00 +34°C° 0.6 mm 3 mps 739 mmHg 43%
    01:00 +34°C° 0 mm 3 mps 739 mmHg 46%
    02:00 +33°C° 0 mm 3 mps 739 mmHg 49%
    03:00 +33°C° 0 mm 4 mps 738 mmHg 52%
    04:00 +31°C° 0.1 mm 3 mps 739 mmHg 55%
    05:00 +31°C° 0.1 mm 2 mps 739 mmHg 58%
    06:00 +30°C° 0.1 mm 1 mps 739 mmHg 61%
    07:00 +32°C° 0 mm 2 mps 740 mmHg 56%
    08:00 +34°C° 0 mm 2 mps 741 mmHg 50%
    09:00 +35°C° 0 mm 2 mps 741 mmHg 45%
    10:00 +37°C° 0 mm 2 mps 741 mmHg 41%
    11:00 +38°C° 0 mm 2 mps 740 mmHg 37%
    12:00 +40°C° 0 mm 2 mps 740 mmHg 32%
    13:00 +40°C° 0 mm 2 mps 739 mmHg 33%
    14:00 +39°C° 0 mm 2 mps 739 mmHg 33%
    15:00 +39°C° 0 mm 2 mps 738 mmHg 33%
    16:00 +39°C° 0 mm 2 mps 739 mmHg 34%
    17:00 +38°C° 0 mm 2 mps 739 mmHg 36%
    18:00 +37°C° 0 mm 2 mps 739 mmHg 37%
    19:00 +37°C° 0.1 mm 2 mps 740 mmHg 40%
    20:00 +36°C° 0.1 mm 2 mps 740 mmHg 42%
    21:00 +34°C° 0.1 mm 1 mps 741 mmHg 45%
    22:00 +34°C° 0.2 mm 1 mps 741 mmHg 46%
    23:00 +33°C° 0.2 mm 1 mps 741 mmHg 48%

    24 February, Saturday

    Time Temperature Precipitation Wind Pressure Humidity
    00:00 +33°C° 0.2 mm 1 mps 740 mmHg 50%
    01:00 +32°C° 0.3 mm 1 mps 740 mmHg 51%
    02:00 +32°C° 0.3 mm 1 mps 740 mmHg 53%
    03:00 +31°C° 0.3 mm 2 mps 740 mmHg 54%
    04:00 +31°C° 0.2 mm 2 mps 741 mmHg 56%
    05:00 +31°C° 0.2 mm 2 mps 741 mmHg 57%
    06:00 +30°C° 0.2 mm 2 mps 742 mmHg 59%
    07:00 +32°C° 0 mm 2 mps 742 mmHg 55%
    08:00 +34°C° 0 mm 2 mps 743 mmHg 50%
    09:00 +34°C° 0 mm 1 mps 743 mmHg 46%
    10:00 +36°C° 0 mm 1 mps 743 mmHg 41%
    11:00 +39°C° 0 mm 1 mps 742 mmHg 37%
    12:00 +40°C° 0 mm 1 mps 742 mmHg 32%
    13:00 +40°C° 0 mm 1 mps 741 mmHg 31%
    14:00 +40°C° 0 mm 1 mps 741 mmHg 30%
    15:00 +40°C° 0 mm 1 mps 740 mmHg 29%
    16:00 +40°C° 0 mm 1 mps 740 mmHg 29%
    17:00 +40°C° 0 mm 1 mps 740 mmHg 30%
    18:00 +39°C° 0 mm 1 mps 740 mmHg 30%
    19:00 +38°C° 0.2 mm 2 mps 741 mmHg 32%
    20:00 +37°C° 0.2 mm 2 mps 741 mmHg 35%
    21:00 +36°C° 0.2 mm 3 mps 742 mmHg 37%
    22:00 +36°C° 0 mm 2 mps 742 mmHg 39%
    23:00 +35°C° 0 mm 2 mps 742 mmHg 41%
    Show more